| time (UTC) | temp C | wind direction | speed KPH | gust KPH | rain 1hr cm | rain 24hr cm | rain mn cm | humidity % | barometer mb |
| 20260509034510 | 6 | 188 | 0.0 | 0.0 | 0.00 | 0.00 | 0.00 | 72 | 1010.9 |
| 20260509033012 | 6 | 188 | 0.0 | 0.0 | 0.00 | 0.00 | 0.00 | 72 | 1010.8 |
| 20260509031508 | 6 | 188 | 0.0 | 0.0 | 0.00 | 0.00 | 0.00 | 72 | 1010.7 |
| 20260509030017 | 6 | 188 | 0.0 | 0.0 | 0.00 | 0.00 | 0.00 | 72 | 1010.5 |
| 20260509024504 | 6 | 188 | 0.0 | 0.0 | 0.00 | 0.00 | 0.00 | 70 | 1010.3 |
| 20260509023005 | 6 | 188 | 0.0 | 0.0 | 0.00 | 0.00 | 0.00 | 67 | 1010.3 |
| 20260509021502 | 5 | 188 | 0.0 | 0.0 | 0.00 | 0.00 | 0.00 | 65 | 1010.2 |
| 20260509020059 | 5 | 188 | 0.0 | 0.0 | 0.00 | 0.00 | 0.00 | 66 | 1009.9 |
| 20260509014558 | 5 | 188 | 0.0 | 0.0 | 0.00 | 0.00 | 0.00 | 67 | 1009.7 |
| 20260509013103 | 5 | 188 | 0.0 | 0.0 | 0.00 | 0.00 | 0.00 | 65 | 1009.5 |
| 20260509011602 | 5 | 188 | 0.0 | 0.0 | 0.00 | 0.00 | 0.00 | 63 | 1009.3 |
| 20260509010055 | 6 | 188 | 0.0 | 0.0 | 0.00 | 0.00 | 0.00 | 62 | 1008.9 |
| 20260509004557 | 6 | 188 | 0.0 | 0.0 | 0.00 | 0.00 | 0.00 | 60 | 1008.7 |
| 20260509003046 | 7 | 188 | 0.0 | 1.6 | 0.00 | 0.00 | 0.00 | 56 | 1008.3 |
| 20260509001549 | 8 | 188 | 0.0 | 0.0 | 0.00 | 0.00 | 0.00 | 52 | 1008.2 |
| 20260509000046 | 8 | 188 | 0.0 | 0.0 | 0.00 | 0.00 | 0.00 | 48 | 1008.1 |
| 20260508234541 | 10 | 188 | 0.0 | 0.0 | 0.00 | 0.00 | 0.00 | 46 | 1007.9 |
| 20260508233037 | 10 | 42 | 0.0 | 0.0 | 0.00 | 0.00 | 0.00 | 42 | 1007.6 |
| 20260508231543 | 11 | 344 | 0.0 | 0.0 | 0.00 | 0.00 | 0.00 | 39 | 1007.5 |
| 20260508230034 | 11 | 9 | 0.0 | 3.2 | 0.00 | 0.00 | 0.00 | 37 | 1007.5 |
| 20260508224555 | 11 | 15 | 0.0 | 3.2 | 0.00 | 0.00 | 0.00 | 37 | 1007.5 |
| 20260508223031 | 12 | 5 | 0.0 | 3.2 | 0.00 | 0.00 | 0.00 | 37 | 1007.2 |
| 20260508221535 | 12 | 307 | 0.0 | 14.5 | 0.00 | 0.00 | 0.00 | 34 | 1007.1 |
| 20260508220034 | 12 | 279 | 0.0 | 4.8 | 0.00 | 0.00 | 0.00 | 36 | 1007.1 |
| 20260508214538 | 12 | 291 | 0.0 | 6.4 | 0.00 | 0.00 | 0.00 | 36 | 1007.1 |
| 20260508213033 | 12 | 294 | 0.0 | 12.9 | 0.00 | 0.00 | 0.00 | 35 | 1006.9 |
| 20260508211527 | 12 | 35 | 0.0 | 3.2 | 0.00 | 0.00 | 0.00 | 39 | 1006.9 |
| 20260508210027 | 12 | 76 | 0.0 | 9.7 | 0.00 | 0.00 | 0.00 | 37 | 1006.7 |
| 20260508204527 | 13 | 12 | 0.0 | 17.7 | 0.00 | 0.00 | 0.00 | 34 | 1006.5 |
| 20260508203026 | 13 | 285 | 3.2 | 16.1 | 0.00 | 0.00 | 0.00 | 33 | 1006.4 |
| 20260508201526 | 13 | 238 | 1.6 | 17.7 | 0.00 | 0.00 | 0.00 | 33 | 1006.3 |
| 20260508200037 | 13 | 346 | 1.6 | 14.5 | 0.00 | 0.00 | 0.00 | 37 | 1006.1 |
| 20260508194525 | 13 | 292 | 1.6 | 16.1 | 0.00 | 0.00 | 0.00 | 37 | 1006.1 |
| 20260508193024 | 12 | 220 | 3.2 | 16.1 | 0.00 | 0.00 | 0.00 | 39 | 1006.2 |
| 20260508191523 | 12 | 300 | 1.6 | 16.1 | 0.00 | 0.00 | 0.00 | 38 | 1006.1 |
| 20260508190022 | 13 | 252 | 1.6 | 25.7 | 0.00 | 0.00 | 0.00 | 36 | 1005.9 |
| 20260508184525 | 13 | 205 | 0.0 | 20.9 | 0.00 | 0.00 | 0.00 | 36 | 1005.8 |
| 20260508183016 | 13 | 192 | 0.0 | 22.5 | 0.00 | 0.00 | 0.00 | 34 | 1005.8 |
| 20260508181515 | 13 | 212 | 1.6 | 17.7 | 0.00 | 0.00 | 0.00 | 34 | 1005.7 |
| 20260508180015 | 14 | 246 | 0.0 | 14.5 | 0.00 | 0.00 | 0.00 | 37 | 1005.5 |
| 20260508174514 | 15 | 194 | 1.6 | 29.0 | 0.00 | 0.00 | 0.00 | 32 | 1005.5 |
| 20260508173017 | 15 | 205 | 1.6 | 16.1 | 0.00 | 0.00 | 0.00 | 29 | 1005.6 |
| 20260508171525 | 14 | 280 | 0.0 | 19.3 | 0.00 | 0.00 | 0.00 | 31 | 1005.5 |
| 20260508170011 | 15 | 78 | 1.6 | 12.9 | 0.00 | 0.00 | 0.00 | 31 | 1005.3 |
| 20260508164510 | 15 | 252 | 0.0 | 25.7 | 0.00 | 0.00 | 0.00 | 29 | 1005.3 |
| 20260508163008 | 14 | 224 | 4.8 | 22.5 | 0.00 | 0.00 | 0.00 | 33 | 1005.6 |
| 20260508161511 | 14 | 206 | 1.6 | 25.7 | 0.00 | 0.00 | 0.00 | 34 | 1005.8 |
| 20260508160005 | 14 | 59 | 0.0 | 12.9 | 0.00 | 0.00 | 0.00 | 34 | 1005.7 |
| 20260508154503 | 14 | 225 | 0.0 | 20.9 | 0.00 | 0.00 | 0.00 | 37 | 1005.9 |
| 20260508153001 | 13 | 274 | 0.0 | 16.1 | 0.00 | 0.00 | 0.00 | 41 | 1005.8 |
| 20260508151559 | 13 | 282 | 0.0 | 12.9 | 0.00 | 0.00 | 0.00 | 39 | 1006.0 |
| 20260508150124 | 13 | 349 | 3.2 | 20.9 | 0.00 | 0.00 | 0.00 | 36 | 1006.1 |
| 20260508144604 | 13 | 319 | 0.0 | 22.5 | 0.00 | 0.00 | 0.00 | 41 | 1006.2 |
| 20260508143055 | 13 | 287 | 0.0 | 24.1 | 0.00 | 0.00 | 0.00 | 40 | 1006.3 |
| 20260508141600 | 13 | 191 | 0.0 | 8.0 | 0.00 | 0.00 | 0.00 | 41 | 1006.2 |
| 20260508140057 | 12 | 346 | 0.0 | 14.5 | 0.00 | 0.00 | 0.00 | 38 | 1006.3 |
| 20260508134547 | 12 | 205 | 0.0 | 11.3 | 0.00 | 0.00 | 0.00 | 41 | 1006.5 |
| 20260508133045 | 12 | 180 | 0.0 | 17.7 | 0.00 | 0.00 | 0.00 | 45 | 1006.7 |
| 20260508131541 | 12 | 193 | 0.0 | 12.9 | 0.00 | 0.00 | 0.00 | 46 | 1006.7 |
| 20260508130039 | 11 | 284 | 0.0 | 11.3 | 0.00 | 0.00 | 0.00 | 47 | 1006.8 |
| 20260508124535 | 11 | 196 | 0.0 | 14.5 | 0.00 | 0.00 | 0.00 | 49 | 1006.8 |
| 20260508123034 | 11 | 197 | 0.0 | 9.7 | 0.00 | 0.00 | 0.00 | 49 | 1006.8 |
| 20260508121530 | 10 | 289 | 0.0 | 8.0 | 0.00 | 0.00 | 0.00 | 51 | 1006.9 |
| 20260508120027 | 9 | 194 | 0.0 | 14.5 | 0.00 | 0.00 | 0.00 | 53 | 1006.8 |
| 20260508114532 | 8 | 269 | 0.0 | 11.3 | 0.00 | 0.00 | 0.00 | 54 | 1006.7 |
| 20260508113027 | 8 | 257 | 0.0 | 9.7 | 0.00 | 0.00 | 0.00 | 56 | 1006.8 |
| 20260508111515 | 7 | 205 | 0.0 | 14.5 | 0.00 | 0.00 | 0.00 | 58 | 1006.7 |
| 20260508110012 | 6 | 258 | 0.0 | 0.0 | 0.00 | 0.00 | 0.00 | 62 | 1006.6 |
| 20260508104510 | 5 | 268 | 0.0 | 4.8 | 0.00 | 0.00 | 0.00 | 67 | 1006.5 |
| 20260508103009 | 5 | 269 | 0.0 | 4.8 | 0.00 | 0.00 | 0.00 | 72 | 1006.5 |
| 20260508101508 | 4 | 207 | 0.0 | 6.4 | 0.00 | 0.00 | 0.00 | 74 | 1006.4 |
| 20260508100008 | 3 | 223 | 0.0 | 9.7 | 0.00 | 0.00 | 0.00 | 74 | 1006.2 |
| 20260508094505 | 3 | 221 | 0.0 | 6.4 | 0.00 | 0.00 | 0.00 | 76 | 1006.0 |
| 20260508093007 | 3 | 267 | 0.0 | 1.6 | 0.00 | 0.00 | 0.00 | 77 | 1005.9 |
| 20260508091505 | 3 | 247 | 0.0 | 0.0 | 0.00 | 0.00 | 0.00 | 76 | 1005.8 |
| 20260508090003 | 2 | 228 | 0.0 | 4.8 | 0.00 | 0.00 | 0.00 | 79 | 1005.6 |
| 20260508084502 | 2 | 241 | 0.0 | 0.0 | 0.00 | 0.00 | 0.00 | 79 | 1005.4 |
| 20260508083100 | 2 | 241 | 0.0 | 0.0 | 0.00 | 0.00 | 0.00 | 78 | 1005.1 |
| 20260508081608 | 2 | 276 | 0.0 | 0.0 | 0.00 | 0.00 | 0.00 | 79 | 1005.2 |
| 20260508080059 | 2 | 297 | 0.0 | 0.0 | 0.00 | 0.00 | 0.00 | 80 | 1005.1 |
| 20260508074600 | 2 | 308 | 0.0 | 0.0 | 0.00 | 0.00 | 0.00 | 79 | 1005.0 |
| 20260508073103 | 2 | 308 | 0.0 | 0.0 | 0.00 | 0.00 | 0.00 | 77 | 1005.0 |
| 20260508071552 | 2 | 308 | 0.0 | 0.0 | 0.00 | 0.00 | 0.00 | 78 | 1005.0 |
| 20260508070051 | 2 | 308 | 0.0 | 0.0 | 0.00 | 0.00 | 0.00 | 77 | 1005.0 |
| 20260508064602 | 2 | 308 | 0.0 | 0.0 | 0.00 | 0.00 | 0.00 | 77 | 1005.0 |
| 20260508063045 | 2 | 308 | 0.0 | 0.0 | 0.00 | 0.00 | 0.00 | 77 | 1005.1 |
| 20260508061550 | 3 | 308 | 0.0 | 0.0 | 0.00 | 0.00 | 0.00 | 75 | 1005.4 |
| 20260508060042 | 3 | 308 | 0.0 | 0.0 | 0.00 | 0.00 | 0.00 | 74 | 1005.5 |
| 20260508054602 | 3 | 308 | 0.0 | 0.0 | 0.00 | 0.00 | 0.00 | 75 | 1005.6 |
| 20260508053035 | 3 | 308 | 0.0 | 0.0 | 0.00 | 0.00 | 0.00 | 74 | 1005.6 |
| 20260508051533 | 3 | 308 | 0.0 | 0.0 | 0.00 | 0.00 | 0.00 | 75 | 1005.7 |
| 20260508050035 | 4 | 308 | 0.0 | 0.0 | 0.00 | 0.00 | 0.00 | 71 | 1006.0 |
| 20260508044526 | 5 | 308 | 0.0 | 0.0 | 0.00 | 0.00 | 0.00 | 70 | 1005.9 |
| 20260508043030 | 5 | 308 | 0.0 | 0.0 | 0.00 | 0.00 | 0.00 | 66 | 1005.9 |
| 20260508041517 | 6 | 308 | 0.0 | 0.0 | 0.00 | 0.00 | 0.00 | 64 | 1005.9 |
| 20260508040015 | 6 | 254 | 0.0 | 0.0 | 0.00 | 0.00 | 0.00 | 62 | 1005.8 |